{"data":{"norad_id":60081,"intl_designator":"2024-114C","name":"KINEIS-1C","alt_names":[],"object_type":"PAYLOAD","status":"ACTIVE","operator":null,"country":"FR","launch_date":"2024-06-20","launch_site_code":"RLLB","launch_vehicle":null,"mission":null,"orbit_class":"UNKNOWN","rcs_meters":null,"size_class":null,"mass_kg":null,"dimensions":null,"purposes":[],"wikipedia_slug":null,"has_3d_model":false,"image_url":null,"decayed_at":null,"tle_current":{"epoch":"2026-05-25T04:13:03.275904Z","epoch_age_seconds":70349,"freshness":"FRESH","line1":"1 60081U 24114C   26145.17573236  .00000724  00000+0  10133-3 0  9992","line2":"2 60081  97.9854 169.3154 0000628 110.2535 249.8744 14.80582866103977","mean_motion":14.80582866,"eccentricity":6.28e-5,"inclination_deg":97.9854,"raan_deg":169.3154,"arg_perigee_deg":110.2535,"mean_anomaly_deg":249.8744,"bstar":0.00010133,"rev_number":10397,"period_min":97.258993945429,"perigee_km":627.04496059832,"apogee_km":627.92486671067,"semimajor_km":7005.6219136545,"source":"CELESTRAK","updated_at":"2026-05-25T13:38:01.826274Z"}}}